| time (UTC) | temp F | wind direction | speed MPH | gust MPH | rain 1hr in | rain 24hr in | rain mn in | humidity % | barometer mb |
| 20260906163353 | 75 | 10 | 14.0 | 0.0 | 0.00 | 0.00 | 0.00 | 39 | 1020.0 |
| 20260906161855 | 75 | 10 | 14.0 | 0.0 | 0.00 | 0.00 | 0.00 | 39 | 1020.0 |
| 20260906160353 | 75 | 10 | 14.0 | 0.0 | 0.00 | 0.00 | 0.00 | 39 | 1020.0 |
| 20260906154850 | 82 | 320 | 16.0 | 0.0 | 0.00 | 0.00 | 0.00 | 23 | 1019.0 |
| 20260906153418 | 82 | 320 | 16.0 | 0.0 | 0.00 | 0.00 | 0.00 | 23 | 1019.0 |
| 20260906151855 | 82 | 320 | 16.0 | 0.0 | 0.00 | 0.00 | 0.00 | 23 | 1019.0 |
| 20260906150355 | 82 | 320 | 16.0 | 0.0 | 0.00 | 0.00 | 0.00 | 23 | 1019.0 |
| 20260906144855 | 82 | 330 | 16.0 | 0.0 | 0.00 | 0.00 | 0.00 | 23 | 1019.0 |
| 20260906143353 | 82 | 330 | 16.0 | 0.0 | 0.00 | 0.00 | 0.00 | 23 | 1019.0 |
| 20260906141925 | 82 | 330 | 16.0 | 0.0 | 0.00 | 0.00 | 0.00 | 23 | 1019.0 |
| 20260906140353 | 82 | 330 | 16.0 | 0.0 | 0.00 | 0.00 | 0.00 | 23 | 1019.0 |
| 20260906134853 | 82 | 320 | 21.0 | 0.0 | 0.00 | 0.00 | 0.00 | 23 | 1019.0 |
| 20260906133353 | 82 | 320 | 21.0 | 0.0 | 0.00 | 0.00 | 0.00 | 23 | 1019.0 |
| 20260906131853 | 82 | 320 | 21.0 | 0.0 | 0.00 | 0.00 | 0.00 | 23 | 1019.0 |
| 20260906130355 | 82 | 320 | 21.0 | 0.0 | 0.00 | 0.00 | 0.00 | 23 | 1019.0 |
| 20260906124848 | 82 | 330 | 18.0 | 0.0 | 0.00 | 0.00 | 0.00 | 25 | 1019.0 |
| 20260906123351 | 82 | 330 | 18.0 | 0.0 | 0.00 | 0.00 | 0.00 | 25 | 1019.0 |
| 20260906121847 | 82 | 330 | 18.0 | 0.0 | 0.00 | 0.00 | 0.00 | 25 | 1019.0 |
| 20260906120350 | 82 | 330 | 18.0 | 0.0 | 0.00 | 0.00 | 0.00 | 25 | 1019.0 |
| 20260906114853 | 81 | 320 | 21.0 | 0.0 | 0.00 | 0.00 | 0.00 | 26 | 1019.0 |
| 20260906113353 | 81 | 320 | 21.0 | 0.0 | 0.00 | 0.00 | 0.00 | 26 | 1019.0 |
| 20260906111852 | 81 | 320 | 21.0 | 0.0 | 0.00 | 0.00 | 0.00 | 26 | 1019.0 |
| 20260906110354 | 81 | 320 | 21.0 | 0.0 | 0.00 | 0.00 | 0.00 | 26 | 1019.0 |
| 20260906104853 | 81 | 310 | 17.0 | 29.0 | 0.00 | 0.00 | 0.00 | 28 | 1019.0 |
| 20260906103354 | 81 | 310 | 17.0 | 29.0 | 0.00 | 0.00 | 0.00 | 28 | 1019.0 |
| 20260906101851 | 81 | 310 | 17.0 | 29.0 | 0.00 | 0.00 | 0.00 | 28 | 1019.0 |
| 20260906100354 | 81 | 310 | 17.0 | 29.0 | 0.00 | 0.00 | 0.00 | 28 | 1019.0 |
| 20260906094854 | 81 | 300 | 21.0 | 0.0 | 0.00 | 0.00 | 0.00 | 28 | 1019.0 |
| 20260906093354 | 81 | 300 | 21.0 | 0.0 | 0.00 | 0.00 | 0.00 | 28 | 1019.0 |
| 20260906091855 | 81 | 300 | 21.0 | 0.0 | 0.00 | 0.00 | 0.00 | 28 | 1019.0 |
| 20260906090355 | 81 | 300 | 21.0 | 0.0 | 0.00 | 0.00 | 0.00 | 28 | 1019.0 |
| 20260906084854 | 79 | 250 | 5.0 | 0.0 | 0.00 | 0.00 | 0.00 | 34 | 1019.0 |
| 20260906083353 | 79 | 250 | 5.0 | 0.0 | 0.00 | 0.00 | 0.00 | 34 | 1019.0 |
| 20260906081853 | 79 | 250 | 5.0 | 0.0 | 0.00 | 0.00 | 0.00 | 34 | 1019.0 |
| 20260906080354 | 79 | 250 | 5.0 | 0.0 | 0.00 | 0.00 | 0.00 | 34 | 1019.0 |
| 20260906074853 | 75 | 40 | 7.0 | 0.0 | 0.00 | 0.00 | 0.00 | 39 | 1019.0 |
| 20260906073353 | 75 | 40 | 7.0 | 0.0 | 0.00 | 0.00 | 0.00 | 39 | 1019.0 |
| 20260906071854 | 75 | 40 | 7.0 | 0.0 | 0.00 | 0.00 | 0.00 | 39 | 1019.0 |
| 20260906070353 | 75 | 40 | 7.0 | 0.0 | 0.00 | 0.00 | 0.00 | 39 | 1019.0 |
| 20260906064853 | 72 | 40 | 9.0 | 0.0 | 0.00 | 0.00 | 0.00 | 44 | 1019.0 |
| 20260906063354 | 72 | 40 | 9.0 | 0.0 | 0.00 | 0.00 | 0.00 | 44 | 1019.0 |
| 20260906062015 | 0 | 0.0 | 0.0 | 0.00 | 0.00 | 0.00 | |||
| 20260906060353 | 72 | 40 | 9.0 | 0.0 | 0.00 | 0.00 | 0.00 | 44 | 1019.0 |
| 20260906054919 | 64 | 20 | 11.0 | 0.0 | 0.00 | 0.00 | 0.00 | 68 | 1019.0 |
| 20260906053353 | 64 | 20 | 11.0 | 0.0 | 0.00 | 0.00 | 0.00 | 68 | 1019.0 |
| 20260906051854 | 64 | 20 | 11.0 | 0.0 | 0.00 | 0.00 | 0.00 | 68 | 1019.0 |
| 20260906050515 | 0 | 0.0 | 0.0 | 0.00 | 0.00 | 0.00 | |||
| 20260906045015 | 0 | 0.0 | 0.0 | 0.00 | 0.00 | 0.00 | |||
| 20260906043503 | 0 | 0.0 | 0.0 | 0.00 | 0.00 | 0.00 | |||
| 20260906042016 | 0 | 0.0 | 0.0 | 0.00 | 0.00 | 0.00 | |||
| 20260906040413 | 61 | 30 | 11.0 | 0.0 | 0.00 | 0.00 | 0.00 | 88 | 1018.0 |
| 20260906034915 | 0 | 0.0 | 0.0 | 0.00 | 0.00 | 0.00 | |||
| 20260906033515 | 0 | 0.0 | 0.0 | 0.00 | 0.00 | 0.00 | |||
| 20260906032017 | 0 | 0.0 | 0.0 | 0.00 | 0.00 | 0.00 | |||
| 20260906030515 | 0 | 0.0 | 0.0 | 0.00 | 0.00 | 0.00 | |||
| 20260906024921 | 64 | 30 | 18.0 | 0.0 | 0.00 | 0.00 | 0.00 | 83 | 1018.0 |
| 20260906023354 | 0 | 0.0 | 0.0 | 0.00 | 0.00 | 0.00 | |||
| 20260906021900 | 0 | 0.0 | 0.0 | 0.00 | 0.00 | 0.00 | |||
| 20260906020355 | 0 | 0.0 | 0.0 | 0.00 | 0.00 | 0.00 | |||
| 20260906014855 | 0 | 0.0 | 0.0 | 0.00 | 0.00 | 0.00 | |||
| 20260906013516 | 0 | 0.0 | 0.0 | 0.00 | 0.00 | 0.00 | |||
| 20260906011853 | 0 | 0.0 | 0.0 | 0.00 | 0.00 | 0.00 | |||
| 20260906010353 | 0 | 0.0 | 0.0 | 0.00 | 0.00 | 0.00 | |||
| 20260906005015 | 0 | 0.0 | 0.0 | 0.00 | 0.00 | 0.00 | |||
| 20260906003525 | 0 | 0.0 | 0.0 | 0.00 | 0.00 | 0.00 | |||
| 20260906002016 | 0 | 0.0 | 0.0 | 0.00 | 0.00 | 0.00 | |||
| 20260906000505 | 0 | 0.0 | 0.0 | 0.00 | 0.00 | 0.00 | |||
| 20260905234904 | 0 | 0.0 | 0.0 | 0.00 | 0.00 | 0.00 | |||
| 20260905233353 | 0 | 0.0 | 0.0 | 0.00 | 0.00 | 0.00 | |||
| 20260905232017 | 0 | 0.0 | 0.0 | 0.00 | 0.00 | 0.00 | |||
| 20260905230426 | 0 | 0.0 | 0.0 | 0.00 | 0.00 | 0.00 | |||
| 20260905225017 | 0 | 0.0 | 0.0 | 0.00 | 0.00 | 0.00 | |||
| 20260905223407 | 0 | 0.0 | 0.0 | 0.00 | 0.00 | 0.00 | |||
| 20260905222000 | 0 | 0.0 | 0.0 | 0.00 | 0.00 | 0.00 | |||
| 20260905220515 | 0 | 0.0 | 0.0 | 0.00 | 0.00 | 0.00 | |||
| 20260905215014 | 0 | 0.0 | 0.0 | 0.00 | 0.00 | 0.00 | |||
| 20260905213354 | 0 | 0.0 | 0.0 | 0.00 | 0.00 | 0.00 | |||
| 20260905211850 | 0 | 0.0 | 0.0 | 0.00 | 0.00 | 0.00 | |||
| 20260905210353 | 0 | 0.0 | 0.0 | 0.00 | 0.00 | 0.00 | |||
| 20260905204904 | 75 | 260 | 7.0 | 0.0 | 0.00 | 0.00 | 0.00 | 50 | 1014.0 |
| 20260905203353 | 75 | 260 | 7.0 | 0.0 | 0.00 | 0.00 | 0.00 | 50 | 1014.0 |
| 20260905201853 | 75 | 260 | 7.0 | 0.0 | 0.00 | 0.00 | 0.00 | 50 | 1014.0 |
| 20260905200515 | 0 | 0.0 | 0.0 | 0.00 | 0.00 | 0.00 | |||
| 20260905195008 | 0 | 0.0 | 0.0 | 0.00 | 0.00 | 0.00 | |||
| 20260905193354 | 77 | 260 | 7.0 | 0.0 | 0.00 | 0.00 | 0.00 | 47 | 1014.0 |
| 20260905191923 | 77 | 260 | 7.0 | 0.0 | 0.00 | 0.00 | 0.00 | 47 | 1014.0 |
| 20260905190354 | 0 | 0.0 | 0.0 | 0.00 | 0.00 | 0.00 | |||
| 20260905184851 | 81 | 250 | 11.0 | 0.0 | 0.00 | 0.00 | 0.00 | 42 | 1013.0 |
| 20260905183359 | 81 | 250 | 11.0 | 0.0 | 0.00 | 0.00 | 0.00 | 42 | 1013.0 |
| 20260905181850 | 81 | 250 | 11.0 | 0.0 | 0.00 | 0.00 | 0.00 | 42 | 1013.0 |
| 20260905180350 | 81 | 250 | 11.0 | 0.0 | 0.00 | 0.00 | 0.00 | 42 | 1013.0 |
| 20260905174847 | 84 | 250 | 11.0 | 0.0 | 0.00 | 0.00 | 0.00 | 37 | 1013.0 |
| 20260905173354 | 84 | 250 | 11.0 | 0.0 | 0.00 | 0.00 | 0.00 | 37 | 1013.0 |
| 20260905171855 | 84 | 250 | 11.0 | 0.0 | 0.00 | 0.00 | 0.00 | 37 | 1013.0 |
| 20260905170354 | 84 | 250 | 11.0 | 0.0 | 0.00 | 0.00 | 0.00 | 37 | 1013.0 |
| 20260905164854 | 88 | 250 | 16.0 | 0.0 | 0.00 | 0.00 | 0.00 | 31 | 1012.0 |